Tracking 26240 objects as of 6-Oct-2022
HD Live streaming from Space Station
objects crossing your sky now

DMSP 5D-2 F13 DEB

Track DMSP 5D-2 F13 DEB now!
10-day predictions


NORAD ID: 42271
Int'l Code: 1995-015GM
Perigee: 807.8 km
Apogee: 813.2 km
Inclination: 98.7 °
Period: 100.9 minutes
Semi major axis: 7181 km
RCS: Unknown
Launch date: March 24, 1995
Source: United States (US)
Launch site: AIR FORCE WESTERN TEST RANGE (AFWTR)

Note: This is SATELLITE DEBRIS
aabbcc
Your satellite tracking list
Your tracking list is empty




NASA's NSSDC Master Catalog

Two Line Element Set (TLE):
1 42271U 95015GM  22277.01470647  .00007695  00000-0  32071-2 0  9997
2 42271  98.7445 297.5549 0003757  27.1913 332.9463 14.26528417376423
Source of the keplerian elements: AFSPC